Location: Newark
(9.4667°S, 159.8167°E)
Time: 05:48:47
(UTC+00:00)

Vanguard 1 - Pass Details

Date: 18 November 2019
Orbit: 652 x 3831 km, 34.3° (Epoch: 07 December)

Event Time Altitude Azimuth Distance (km) Brightness Sun altitude
Rises 15:14:11 0° 237° (WSW) 6,799 14.3 -47.3°
Reaches altitude 10° 15:19:02 10° 228° (SW) 6,153 14.0 -46.4°
Maximum altitude 15:38:21 38° 164° (SSE) 4,955 13.7 -42.7°
Drops below altitude 10° 15:58:32 10° 102° (ESE) 6,463 14.8 -38.7°
Sets 16:03:43 0° 94° (E) 7,162 15.2 -37.6°
